This demonstration page uses our WeatherBlox Daily Observations layout. Learn more.

Left ArrowRight Arrow

47.50024, -111.30081

Hourly Observations for April 13, 2020

Temp ( °F °C ) Dew Point ( °F °C ) Humidity (%) Winds ( mph kmh ) Pressure ( in mb ) Visibility ( mi km ) Precip ( " mm )
12:53 am 00:53 Mostly Clear 14 -10 8 -13.3 77 77 W 8 13 30.46 1031 10 16 0.00 0.00
1:53 am 01:53 Clear 13 -10.6 6 -14.4 74 74 WSW 10 17 30.45 1031 10 16 0.00 0.00
2:53 am 02:53 Clear 13 -10.6 7 -13.9 77 77 W 7 11 30.44 1031 10 16 0.00 0.00
3:53 am 03:53 Partly Cloudy 8 -13.3 4 -15.6 83 83 WSW 7 11 30.44 1031 10 16 0.00 0.00
4:53 am 04:53 Partly Cloudy 8 -13.3 3 -16.1 80 80 WSW 9 15 30.42 1030 10 16 0.00 0.00
5:53 am 05:53 Clear 5 -15 1 -17.2 83 83 WSW 7 11 30.44 1031 10 16 0.00 0.00
6:53 am 06:53 Sunny 5 -15 1 -17.2 83 83 SW 8 13 30.45 1031 10 16 0.00 0.00
7:53 am 07:53 Cloudy 11 -11.7 6 -14.4 81 81 WSW 9 15 30.45 1031 10 16 0.00 0.00
8:53 am 08:53 Cloudy 14 -10 8 -13.3 77 77 WSW 6 9 30.46 1032 10 16 0.00 0.00
9:53 am 09:53 Cloudy 17 -8.3 10 -12.2 74 74 SW 9 15 30.45 1031 10 16 0.00 0.00
10:53 am 10:53 Cloudy 19 -7.2 13 -10.6 77 77 SW 10 17 30.46 1032 10 16 0.00 0.00
11:11 am 11:11 Cloudy 19 -7.2 13 -10.6 77 77 SW 12 19 30.48 1032 8 13 0.00 0.00
11:28 am 11:28 Cloudy with Light Snow 20 -6.7 13 -10.6 74 74 SW 12 19 30.48 1032 1 2 0.00 0.00
11:46 am 11:46 Cloudy with Light Snow 21 -6.1 14 -10 74 74 SW 12 19 30.47 1032 6 10 0.00 0.00
11:53 am 11:53 Cloudy 21 -6.1 14 -10 74 74 WSW 12 19 30.45 1031 7 11 0.00 0.00
12:33 pm 12:33 Cloudy 23 -5 13 -10.6 65 65 WSW 13 20 30.44 1031 10 16 0.00 0.00
12:53 pm 12:53 Cloudy 24 -4.4 13 -10.6 62 62 W 13 20 30.45 1031 10 16 0.00 0.00
1:53 pm 13:53 Mostly Cloudy 25 -3.9 12 -11.1 58 58 W 9 15 30.44 1031 10 16 0.00 0.00
2:53 pm 14:53 Partly Cloudy 26 -3.3 12 -11.1 55 55 W 9 15 30.43 1030 10 16 0.00 0.00
3:53 pm 15:53 Sunny 28 -2.2 13 -10.6 53 53 W 10 17 30.42 1030 10 16 0.00 0.00
4:53 pm 16:53 Sunny 28 -2.2 13 -10.6 53 53 WSW 13 20 30.42 1030 10 16 0.00 0.00
5:53 pm 17:53 Sunny 28 -2.2 14 -10 56 56 WSW 12 19 30.41 1030 10 16 0.00 0.00
6:53 pm 18:53 Sunny 27 -2.8 14 -10 58 58 WSW 5 7 30.40 1030 10 16 0.00 0.00
7:53 pm 19:53 Sunny 24 -4.4 14 -10 65 65 SSW 10 17 30.37 1029 10 16 0.00 0.00
8:53 pm 20:53 Clear 23 -5 12 -11.1 63 63 SSW 15 24 30.35 1028 10 16 0.00 0.00
9:53 pm 21:53 Mostly Clear 24 -4.4 12 -11.1 60 60 SSW 14 22 30.31 1027 10 16 0.00 0.00
10:53 pm 22:53 Mostly Clear 24 -4.4 13 -10.6 62 62 SSW 17 28 30.28 1025 10 16 0.00 0.00
11:53 pm 23:53 Mostly Clear 25 -3.9 13 -10.6 60 60 SSW 15 24 30.24 1024 10 16 0.00 0.00

Powered by AerisWeather